When you browse on this site, cookies collect data to enhance your experience and personalize the content and advertising you see.
Visit our Privacy Policy to learn more. By continuing to use the site, you agree to this use of cookies and data.
  • In Österreich
  • Länderverzeichnis
  • Für 7 Tage
  • Wassertemperatur
  • Wetterkarte
  • News
  • Widgets
  • user-avatar
    Anmelden

    Stündliche Wetter Belmopan

    Heute, 28 Februar, Freitag

    Zeit Temperatur Niederschläge Wind Luftdruck Luftfeuchtigkeit
    00:00 +21°C° 0 mm 1 m/S 760 mmHg 89%
    01:00 +21°C° 0 mm 1 m/S 759 mmHg 89%
    02:00 +20°C° 0 mm 1 m/S 759 mmHg 90%
    03:00 +20°C° 0 mm 1 m/S 758 mmHg 90%
    04:00 +20°C° 0 mm 1 m/S 758 mmHg 88%
    05:00 +19°C° 0 mm 1 m/S 759 mmHg 86%
    06:00 +20°C° 0 mm 1 m/S 759 mmHg 84%
    07:00 +20°C° 0 mm 1 m/S 760 mmHg 82%
    08:00 +20°C° 0 mm 1 m/S 760 mmHg 81%
    09:00 +20°C° 0 mm 1 m/S 761 mmHg 79%
    10:00 +22°C° 0 mm 1 m/S 761 mmHg 71%
    11:00 +24°C° 0 mm 1 m/S 761 mmHg 63%
    12:00 +26°C° 0 mm 2 m/S 761 mmHg 55%
    13:00 +26°C° 0 mm 1 m/S 760 mmHg 57%
    14:00 +25°C° 0 mm 1 m/S 759 mmHg 60%
    15:00 +25°C° 0 mm 1 m/S 759 mmHg 62%
    16:00 +24°C° 0 mm 1 m/S 759 mmHg 64%
    17:00 +23°C° 0 mm 1 m/S 759 mmHg 67%
    18:00 +21°C° 0 mm 0 m/S 759 mmHg 70%
    19:00 +21°C° 0 mm 0 m/S 760 mmHg 69%
    20:00 +21°C° 0 mm 0 m/S 760 mmHg 69%
    21:00 +21°C° 0 mm 0 m/S 761 mmHg 68%
    22:00 +20°C° 0 mm 0 m/S 761 mmHg 72%
    23:00 +20°C° 0 mm 0 m/S 761 mmHg 75%

    Morgen, 29 Februar, Samstag

    Zeit Temperatur Niederschläge Wind Luftdruck Luftfeuchtigkeit
    00:00 +22°C° 0 mm 1 m/S 761 mmHg 78%
    01:00 +21°C° 0 mm 1 m/S 761 mmHg 78%
    02:00 +21°C° 0 mm 1 m/S 760 mmHg 78%
    03:00 +21°C° 0 mm 1 m/S 760 mmHg 78%
    04:00 +20°C° 0 mm 1 m/S 760 mmHg 78%
    05:00 +20°C° 0 mm 1 m/S 760 mmHg 77%
    06:00 +20°C° 0 mm 1 m/S 760 mmHg 77%
    07:00 +20°C° 0 mm 1 m/S 761 mmHg 74%
    08:00 +21°C° 0 mm 1 m/S 762 mmHg 71%
    09:00 +21°C° 0 mm 1 m/S 762 mmHg 68%
    10:00 +23°C° 0 mm 1 m/S 762 mmHg 61%
    11:00 +25°C° 0 mm 1 m/S 761 mmHg 54%
    12:00 +27°C° 0 mm 1 m/S 761 mmHg 47%
    13:00 +27°C° 0 mm 1 m/S 760 mmHg 49%
    14:00 +27°C° 0 mm 1 m/S 759 mmHg 50%
    15:00 +27°C° 0 mm 1 m/S 758 mmHg 52%
    16:00 +25°C° 0.1 mm 1 m/S 759 mmHg 63%
    17:00 +23°C° 0.1 mm 1 m/S 759 mmHg 75%
    18:00 +22°C° 0.1 mm 1 m/S 759 mmHg 87%
    19:00 +22°C° 0.1 mm 1 m/S 759 mmHg 87%
    20:00 +21°C° 0.1 mm 1 m/S 759 mmHg 88%
    21:00 +19°C° 0.1 mm 0 m/S 760 mmHg 88%
    22:00 +19°C° 0.1 mm 0 m/S 759 mmHg 90%
    23:00 +21°C° 0.1 mm 1 m/S 759 mmHg 91%

    übermorgen, 1 März, Sonntag

    Zeit Temperatur Niederschläge Wind Luftdruck Luftfeuchtigkeit
    00:00 +21°C° 0.1 mm 1 m/S 759 mmHg 92%
    01:00 +21°C° 0.2 mm 1 m/S 759 mmHg 93%
    02:00 +20°C° 0.2 mm 1 m/S 758 mmHg 94%
    03:00 +20°C° 0.2 mm 1 m/S 758 mmHg 94%
    04:00 +18°C° 0 mm 0 m/S 758 mmHg 95%
    05:00 +17°C° 0 mm 0 m/S 758 mmHg 97%
    06:00 +17°C° 0 mm 0 m/S 758 mmHg 98%
    07:00 +21°C° 0 mm 1 m/S 758 mmHg 89%
    08:00 +23°C° 0 mm 1 m/S 758 mmHg 80%
    09:00 +25°C° 0 mm 2 m/S 758 mmHg 71%
    10:00 +26°C° 0 mm 2 m/S 758 mmHg 65%
    11:00 +28°C° 0 mm 2 m/S 757 mmHg 60%
    12:00 +29°C° 0 mm 2 m/S 757 mmHg 54%
    13:00 +29°C° 0.1 mm 3 m/S 756 mmHg 57%
    14:00 +28°C° 0.1 mm 3 m/S 755 mmHg 60%
    15:00 +28°C° 0.1 mm 3 m/S 755 mmHg 64%
    16:00 +27°C° 0 mm 2 m/S 755 mmHg 68%
    17:00 +25°C° 0 mm 2 m/S 755 mmHg 73%
    18:00 +24°C° 0 mm 2 m/S 754 mmHg 77%
    19:00 +23°C° 0 mm 1 m/S 755 mmHg 84%
    20:00 +22°C° 0 mm 1 m/S 755 mmHg 91%
    21:00 +21°C° 0 mm 1 m/S 756 mmHg 98%
    22:00 +21°C° 0 mm 1 m/S 755 mmHg 98%
    23:00 +19°C° 0 mm 0 m/S 755 mmHg 98%

    2 März, Montag

    Zeit Temperatur Niederschläge Wind Luftdruck Luftfeuchtigkeit
    00:00 +19°C° 0 mm 0 m/S 755 mmHg 98%
    01:00 +19°C° 0.1 mm 0 m/S 754 mmHg 98%
    02:00 +19°C° 0.1 mm 0 m/S 754 mmHg 98%
    03:00 +19°C° 0.1 mm 0 m/S 753 mmHg 98%
    04:00 +20°C° 0.1 mm 0 m/S 753 mmHg 98%
    05:00 +22°C° 0.1 mm 1 m/S 753 mmHg 98%
    06:00 +22°C° 0.1 mm 1 m/S 753 mmHg 98%
    07:00 +23°C° 0.1 mm 1 m/S 753 mmHg 94%
    08:00 +24°C° 0.1 mm 2 m/S 754 mmHg 89%
    09:00 +26°C° 0.1 mm 2 m/S 754 mmHg 84%
    10:00 +27°C° 0 mm 2 m/S 753 mmHg 76%
    11:00 +29°C° 0 mm 3 m/S 753 mmHg 69%
    12:00 +30°C° 0 mm 3 m/S 752 mmHg 61%
    13:00 +30°C° 0 mm 3 m/S 752 mmHg 60%
    14:00 +30°C° 0 mm 3 m/S 751 mmHg 60%
    15:00 +31°C° 0 mm 3 m/S 750 mmHg 59%
    16:00 +29°C° 0 mm 3 m/S 750 mmHg 66%
    17:00 +27°C° 0 mm 2 m/S 750 mmHg 73%
    18:00 +25°C° 0 mm 2 m/S 750 mmHg 80%
    19:00 +25°C° 0 mm 2 m/S 750 mmHg 84%
    20:00 +24°C° 0 mm 2 m/S 750 mmHg 88%
    21:00 +24°C° 0 mm 1 m/S 751 mmHg 92%
    22:00 +24°C° 0 mm 1 m/S 750 mmHg 93%
    23:00 +24°C° 0 mm 1 m/S 750 mmHg 94%

    3 März, Dienstag

    Zeit Temperatur Niederschläge Wind Luftdruck Luftfeuchtigkeit
    00:00 +25°C° 0 mm 1 m/S 750 mmHg 95%
    01:00 +25°C° 0 mm 1 m/S 750 mmHg 96%
    02:00 +25°C° 0 mm 1 m/S 749 mmHg 97%
    03:00 +25°C° 0 mm 1 m/S 749 mmHg 98%
    04:00 +25°C° 0 mm 1 m/S 749 mmHg 98%
    05:00 +25°C° 0 mm 1 m/S 749 mmHg 98%
    06:00 +25°C° 0 mm 1 m/S 749 mmHg 98%
    07:00 +26°C° 0 mm 1 m/S 749 mmHg 90%
    08:00 +28°C° 0 mm 1 m/S 750 mmHg 82%
    09:00 +30°C° 0 mm 2 m/S 750 mmHg 74%
    10:00 +32°C° 0 mm 2 m/S 750 mmHg 64%
    11:00 +35°C° 0 mm 2 m/S 750 mmHg 55%
    12:00 +37°C° 0 mm 3 m/S 749 mmHg 46%
    13:00 +37°C° 0 mm 3 m/S 748 mmHg 45%
    14:00 +37°C° 0 mm 3 m/S 747 mmHg 45%
    15:00 +36°C° 0 mm 3 m/S 747 mmHg 45%
    16:00 +34°C° 0 mm 3 m/S 747 mmHg 55%
    17:00 +31°C° 0 mm 2 m/S 747 mmHg 65%
    18:00 +28°C° 0 mm 2 m/S 747 mmHg 75%
    19:00 +27°C° 0 mm 2 m/S 748 mmHg 80%
    20:00 +27°C° 0 mm 2 m/S 748 mmHg 85%
    21:00 +26°C° 0 mm 2 m/S 748 mmHg 89%
    22:00 +26°C° 0 mm 2 m/S 748 mmHg 91%
    23:00 +26°C° 0 mm 2 m/S 748 mmHg 92%

    4 März, Mittwoch

    Zeit Temperatur Niederschläge Wind Luftdruck Luftfeuchtigkeit
    00:00 +26°C° 0 mm 1 m/S 748 mmHg 94%
    01:00 +26°C° 0 mm 1 m/S 748 mmHg 95%
    02:00 +25°C° 0 mm 1 m/S 748 mmHg 96%
    03:00 +25°C° 0 mm 1 m/S 748 mmHg 97%
    04:00 +25°C° 0 mm 1 m/S 748 mmHg 97%
    05:00 +23°C° 0 mm 0 m/S 749 mmHg 97%
    06:00 +23°C° 0 mm 0 m/S 749 mmHg 97%
    07:00 +25°C° 0 mm 0 m/S 750 mmHg 85%
    08:00 +30°C° 0 mm 1 m/S 751 mmHg 73%
    09:00 +32°C° 0 mm 1 m/S 752 mmHg 61%
    10:00 +35°C° 0 mm 1 m/S 752 mmHg 51%
    11:00 +37°C° 0 mm 1 m/S 752 mmHg 41%
    12:00 +41°C° 0 mm 1 m/S 752 mmHg 32%
    13:00 +40°C° 0 mm 1 m/S 751 mmHg 33%
    14:00 +40°C° 0 mm 1 m/S 751 mmHg 34%
    15:00 +40°C° 0 mm 1 m/S 750 mmHg 35%
    16:00 +36°C° 1.7 mm 2 m/S 751 mmHg 54%
    17:00 +31°C° 1.7 mm 2 m/S 752 mmHg 74%
    18:00 +26°C° 1.7 mm 2 m/S 753 mmHg 94%
    19:00 +26°C° 1.3 mm 2 m/S 754 mmHg 95%
    20:00 +25°C° 1.3 mm 2 m/S 755 mmHg 96%
    21:00 +25°C° 1.3 mm 2 m/S 756 mmHg 98%
    22:00 +24°C° 1.5 mm 2 m/S 757 mmHg 96%
    23:00 +23°C° 1.5 mm 2 m/S 757 mmHg 94%
    Mehr zeigen